TimeEST,TemperatureF,Dew PointF,Humidity,Sea Level PressureIn,VisibilityMPH,Wind Direction,Wind SpeedMPH,Gust SpeedMPH,PrecipitationIn,Events,Conditions,WindDirDegrees,DateUTC
12:53 AM,44.1,42.1,93,30.22,8.0,Calm,Calm,-,N/A,,Scattered Clouds,0,2012-12-04 05:53:00
1:53 AM,42.1,41.0,96,30.23,5.0,Calm,Calm,-,N/A,,Partly Cloudy,0,2012-12-04 06:53:00
2:53 AM,41.0,39.9,96,30.22,5.0,Calm,Calm,-,N/A,,Partly Cloudy,0,2012-12-04 07:53:00
3:53 AM,41.0,39.9,96,30.23,5.0,Calm,Calm,-,N/A,,Clear,0,2012-12-04 08:53:00
4:00 AM,39.2,39.2,100,30.26,1.0,Calm,Calm,-,N/A,,Partly Cloudy,0,2012-12-04 09:00:00
4:09 AM,37.4,37.4,100,30.26,1.0,Calm,Calm,-,N/A,,Mist,0,2012-12-04 09:09:00
4:36 AM,39.2,37.4,93,30.26,0.8,Calm,Calm,-,N/A,,Scattered Clouds,0,2012-12-04 09:36:00
4:43 AM,39.2,39.2,100,30.26,0.8,Calm,Calm,-,N/A,,Mist,0,2012-12-04 09:43:00
4:53 AM,39.0,37.9,96,30.23,0.8,Calm,Calm,-,N/A,,Mist,0,2012-12-04 09:53:00
5:46 AM,39.2,39.2,100,30.27,1.2,Calm,Calm,-,N/A,,Scattered Clouds,0,2012-12-04 10:46:00
5:53 AM,39.9,39.9,100,30.24,2.0,Calm,Calm,-,N/A,,Mostly Cloudy,0,2012-12-04 10:53:00
6:46 AM,41.0,41.0,100,30.28,5.0,Calm,Calm,-,N/A,,Mostly Cloudy,0,2012-12-04 11:46:00
6:53 AM,41.0,39.9,96,30.26,4.0,Calm,Calm,-,N/A,,Mostly Cloudy,0,2012-12-04 11:53:00
7:53 AM,42.1,39.9,92,30.27,10.0,Calm,Calm,-,N/A,,Mostly Cloudy,0,2012-12-04 12:53:00
8:53 AM,43.0,42.1,97,30.27,10.0,Calm,Calm,-,N/A,,Mostly Cloudy,0,2012-12-04 13:53:00
9:53 AM,50.0,46.0,86,30.27,7.0,Calm,Calm,-,N/A,,Scattered Clouds,0,2012-12-04 14:53:00
10:53 AM,54.0,46.9,77,30.27,10.0,Calm,Calm,-,N/A,,Scattered Clouds,0,2012-12-04 15:53:00
11:53 AM,60.1,48.0,64,30.24,10.0,Calm,Calm,-,N/A,,Scattered Clouds,0,2012-12-04 16:53:00
12:53 PM,66.0,48.9,54,30.20,10.0,Calm,Calm,-,N/A,,Scattered Clouds,0,2012-12-04 17:53:00
1:53 PM,68.0,48.0,49,30.17,10.0,WSW,3.5,-,N/A,,Mostly Cloudy,240,2012-12-04 18:53:00
2:53 PM,66.9,46.9,49,30.15,10.0,WNW,9.2,-,N/A,,Mostly Cloudy,290,2012-12-04 19:53:00
3:53 PM,66.9,46.9,49,30.15,10.0,West,6.9,-,N/A,,Overcast,260,2012-12-04 20:53:00
4:53 PM,64.0,48.9,58,30.15,10.0,WNW,4.6,-,N/A,,Overcast,290,2012-12-04 21:53:00
5:53 PM,61.0,48.9,64,30.16,10.0,Calm,Calm,-,N/A,,Overcast,0,2012-12-04 22:53:00
6:53 PM,59.0,48.9,69,30.17,10.0,Calm,Calm,-,N/A,,Overcast,0,2012-12-04 23:53:00
7:53 PM,59.0,50.0,72,30.17,10.0,Calm,Calm,-,0.00,,Overcast,0,2012-12-05 00:53:00
8:53 PM,57.0,50.0,77,30.17,10.0,Calm,Calm,-,N/A,,Overcast,0,2012-12-05 01:53:00
9:53 PM,54.0,48.0,80,30.15,10.0,Calm,Calm,-,N/A,,Scattered Clouds,0,2012-12-05 02:53:00
10:53 PM,54.0,48.0,80,30.14,10.0,Calm,Calm,-,N/A,,Mostly Cloudy,0,2012-12-05 03:53:00
11:53 PM,52.0,46.9,83,30.13,10.0,Calm,Calm,-,N/A,,Overcast,0,2012-12-05 04:53:00